User: anonymous   Login
Location: Temagami
(47.0645°N, 79.7909°W)
Time: 22:07:54
(UTC-04:00)
Language:

ISS - Orbit

View from above orbital plane
View from above orbital plane
View from above satellite
View from above satellite

Ground track
Ground track

The orbit data is extracted from the following two-line orbital elements,

1 25544U 98067A   24200.87896740  .00019841  00000-0  35401-3 0  9996
2 25544  51.6388 158.3318 0010400  81.5465  15.8636 15.50011641463462
Epoch (UTC): 18 July 2024 21:05:42
Eccentricity: 0.0010400
inclination: 51.6388°
perigee height: 409 km
apogee height: 424 km
right ascension of ascending node: 158.3318°
argument of perigee: 81.5465°
revolutions per day: 15.50011641
mean anomaly at epoch: 15.8636°
orbit number at epoch: 46346

The dashed part of the orbit path shows where the satellite is in the earth's shadow,  

DLR